[TLELIST] Archives

 

[TLELIST] Current TLEs

October 26th 2023 PDT

HST 1 20580U 90037B 23298.52551964 .00004352 00000-0 21973-3 0 9994 2 20580 28.4677 119.9916 0002746 0.5189 32.1997 15.14569115641234 ISS (ZARYA) 1 25544U 98067A 23299.14014769 .00016046 00000-0 29195-3 0 9993 2 25544 51.6418 39.8968 0000577 78.6429 281.4624 15.49666121422102 CXO 1 25867U 99040B 23300.16782697 .00000861 00000-0 00000-0 0 9999 2 25867 37.4901 180.1207 9040477 276.0599 0.3478 0.37812255 13674 ...Continue Reading

[TLELIST] Current TLEs

October 25th 2023 PDT

HST 1 20580U 90037B 23297.60549738 .00004351 00000-0 21974-3 0 9998 2 20580 28.4676 126.1260 0002689 351.0144 55.3528 15.14561467641099 ISS (ZARYA) 1 25544U 98067A 23297.54734152 .00014482 00000-0 26480-3 0 9996 2 25544 51.6428 47.7812 0000612 112.0677 356.3742 15.49613668421859 CXO 1 25867U 99040B 23300.16738880 .00000861 00000-0 00000-0 0 9994 2 25867 37.4902 180.1210 9040459 276.0597 0.2876 0.37813152 13675 ...Continue Reading

[TLELIST] Current TLEs

October 25th 2023 PDT

HST 1 20580U 90037B 23297.60549738 .00004351 00000-0 21974-3 0 9998 2 20580 28.4676 126.1260 0002689 351.0144 55.3528 15.14561467641099 ISS (ZARYA) 1 25544U 98067A 23297.54734152 .00014482 00000-0 26480-3 0 9996 2 25544 51.6428 47.7812 0000612 112.0677 356.3742 15.49613668421859 CXO 1 25867U 99040B 23300.16738880 .00000861 00000-0 00000-0 0 9994 2 25867 37.4902 180.1210 9040459 276.0597 0.2876 0.37813152 13675 ...Continue Reading

[TLELIST] Current TLEs

October 24th 2023 PDT

HST 1 20580U 90037B 23296.87705076 .00004799 00000-0 24345-3 0 9996 2 20580 28.4676 130.9827 0002626 343.0864 43.5819 15.14555761640981 ISS (ZARYA) 1 25544U 98067A 23297.41259263 .00015220 00000-0 27790-3 0 9993 2 25544 51.6413 48.4494 0000518 106.0704 330.1650 15.49610500421834 CXO 1 25867U 99040B 23300.16738880 .00000861 00000-0 00000+0 0 9993 2 25867 37.4902 180.1210 9040459 276.0597 0.2876 0.37813152 24835 ...Continue Reading

[TLELIST] Current TLEs

October 24th 2023 PDT

HST 1 20580U 90037B 23296.87705076 .00004799 00000-0 24345-3 0 9996 2 20580 28.4676 130.9827 0002626 343.0864 43.5819 15.14555761640981 ISS (ZARYA) 1 25544U 98067A 23297.41259263 .00015220 00000-0 27790-3 0 9993 2 25544 51.6413 48.4494 0000518 106.0704 330.1650 15.49610500421834 CXO 1 25867U 99040B 23300.16738880 .00000861 00000-0 00000+0 0 9993 2 25867 37.4902 180.1210 9040459 276.0597 0.2876 0.37813152 24835 ...Continue Reading

[TLELIST] Current TLEs

October 23rd 2023 PDT

HST 1 20580U 90037B 23295.90125887 .00005877 00000-0 30042-3 0 9994 2 20580 28.4675 137.4884 0002569 332.3628 123.3179 15.14547621640836 ISS (ZARYA) 1 25544U 98067A 23296.37917315 .00018432 00000-0 33500-3 0 9990 2 25544 51.6441 53.5633 0000747 94.3246 333.1434 15.49587033421670 CXO 1 25867U 99040B 23297.52692204 .00001048 00000-0 00000-0 0 9996 2 25867 37.4700 180.4501 9038080 275.8044 0.7684 0.37810595 13678 ...Continue Reading

[TLELIST] Current TLEs

October 23rd 2023 PDT

HST 1 20580U 90037B 23295.90125887 .00005877 00000-0 30042-3 0 9994 2 20580 28.4675 137.4884 0002569 332.3628 123.3179 15.14547621640836 ISS (ZARYA) 1 25544U 98067A 23296.37917315 .00018432 00000-0 33500-3 0 9990 2 25544 51.6441 53.5633 0000747 94.3246 333.1434 15.49587033421670 CXO 1 25867U 99040B 23297.52692204 .00001048 00000-0 00000-0 0 9996 2 25867 37.4700 180.4501 9038080 275.8044 0.7684 0.37810595 13678 ...Continue Reading

[TLELIST] Current TLEs

October 23rd 2023 PDT

HST 1 20580U 90037B 23295.90125887 .00005877 00000-0 30042-3 0 9994 2 20580 28.4675 137.4884 0002569 332.3628 123.3179 15.14547621640836 ISS (ZARYA) 1 25544U 98067A 23296.37917315 .00018432 00000-0 33500-3 0 9990 2 25544 51.6441 53.5633 0000747 94.3246 333.1434 15.49587033421670 CXO 1 25867U 99040B 23297.52692204 .00001048 00000-0 00000-0 0 9996 2 25867 37.4700 180.4501 9038080 275.8044 0.7684 0.37810595 13678 ...Continue Reading

[TLELIST] Current TLEs

October 22nd 2023 PDT

HST 1 20580U 90037B 23294.89911536 .00005617 00000-0 28679-3 0 9990 2 20580 28.4675 144.1699 0002526 321.3089 59.4519 15.14535022640689 ISS (ZARYA) 1 25544U 98067A 23295.41220898 .00018514 00000-0 33688-3 0 9995 2 25544 51.6437 58.3509 0000761 92.1891 337.5589 15.49550953421522 CXO 1 25867U 99040B 23297.52692204 .00001048 00000-0 00000-0 0 9996 2 25867 37.4700 180.4501 9038080 275.8044 0.7684 0.37810595 13678 ...Continue Reading

[TLELIST] Current TLEs

October 22nd 2023 PDT

HST 1 20580U 90037B 23294.89911536 .00005617 00000-0 28679-3 0 9990 2 20580 28.4675 144.1699 0002526 321.3089 59.4519 15.14535022640689 ISS (ZARYA) 1 25544U 98067A 23295.41220898 .00018514 00000-0 33688-3 0 9995 2 25544 51.6437 58.3509 0000761 92.1891 337.5589 15.49550953421522 CXO 1 25867U 99040B 23297.52692204 .00001048 00000-0 00000-0 0 9996 2 25867 37.4700 180.4501 9038080 275.8044 0.7684 0.37810595 13678 ...Continue Reading
  • This mailing list is a public mailing list - anyone may join or leave, at any time.
  • This mailing list is announce-only.

International Space Station (ISS) / Hubble Space Telescope (HST) / Chandra X-Ray Observatory Orbital Data via EMAIL

Privacy Policy:

Private list